Погода в Береславке

Россия / Волгоградская область     48°37′15″N   44°03′16″E
темп.,
°C
ветер,
м/с
пор.,
м/с
влажн.,
%
обл.,
%
осадки,
мм/ч
давл.,
гПа
погр.,
м
5 марта, пт
пт500:00+1зюз919760 0.0 1013563
03:00+1зюз10188412 0.0 1013631
06:00+1зюз10198940 0.0 1012679
09:00+2зюз10168664 0.0 1012741
12:00+4зюз91484100 0.0 1012739
15:00+4зюз71485100 0.1 1013655
18:00+4зюз71289100 0.0 1014432
21:00+3зюз4897100 0.3 1015278
6 марта, сб
сб600:00+3юз4896100 0.8 1015270
03:00+3юз3892100 1.6 1015276
06:00+3юз41092100 1.6 1014423
09:00+3юз5991100 3.3 1013411
12:00+3юз41092100 2.0 1011589
15:00+4з3893100 3.3 1009458
18:00+1ссз5897100 0.7 1009334
21:00−2с7986100 0.9 1012605
7 марта, вс
вс700:00−3ссз588598 0.0 1014536
03:00−3зсз468467 0.0 1017457
06:00−4зсз7108693 0.7 1019679
09:00−3зсз7107697 0.9 1021777
12:00−1зсз685691 0.0 10211217
15:000зюз7104545 0.0 10201539
18:00−1юз6125961 0.0 1017528
21:00−1юз9166478 0.0 1017756
8 марта, пн
пн800:00−1зюз1016675 0.0 1015838
03:00−1зюз916692 0.0 1014845
06:00−1зюз815690 0.0 1013710
09:00+1зюз10156317 0.0 10131206
12:00+3зюз12166081 0.0 10121691
15:00+4зюз11165890 0.1 10101896
18:00+2зюз81477100 0.1 1010880
21:000зюз6138587 0.1 1013493
9 марта, вт
вт900:00−4ссв257786 0.4 1015256
03:00−4в236476 0.4 1015233
06:00−4юв4679100 0.1 1014353
09:00−2юв5792100 1.1 1013310
12:00+1юз71095100 0.6 1011618
15:00+3юз71078100 0.9 1010867
18:00−2сз6993100 0.4 1010314
21:00−5ссз698899 0.4 1013491